VIA003 SVMG-SVMI

Flight info

Callsign VIA003
Flight time 0h 42m
Altitude 24000
Route ESPEP SARNI A561 CBC NETSI1
Aircraft A20N/M-SDE2E3FGHIJ1RWXY/LB1

Departure

Time 2026-04-22 13:47
Airport Del Caribe Santiago Mariño International Airport (SVMG)

Arrival

Time 2026-04-22 14:29
Airport Maiquetía Simón Bolívar International Airport (SVMI)
Time Latitude Longitude Altitude Speed Heading
2026-04-22 13:23 10.91581 -63.96869 87 ft 0 kts 348°
2026-04-22 13:36 10.91578 -63.96869 87 ft 2 kts 348°
2026-04-22 13:36 10.91563 -63.96865 87 ft 2 kts 347°
2026-04-22 13:37 10.91548 -63.96862 87 ft 2 kts 348°
2026-04-22 13:37 10.91534 -63.96859 87 ft 2 kts 348°
2026-04-22 13:37 10.91524 -63.96857 87 ft 2 kts 345°
2026-04-22 13:37 10.91514 -63.96848 87 ft 2 kts 288°
2026-04-22 13:38 10.91513 -63.96839 87 ft 1 kts 259°
2026-04-22 13:38 10.91515 -63.96832 87 ft 0 kts 257°
2026-04-22 13:40 10.91514 -63.96837 87 ft 1 kts 257°
2026-04-22 13:40 10.91510 -63.96853 87 ft 3 kts 257°
2026-04-22 13:40 10.91504 -63.96879 87 ft 4 kts 257°
2026-04-22 13:41 10.91496 -63.96917 88 ft 6 kts 257°
2026-04-22 13:41 10.91486 -63.96964 88 ft 7 kts 256°
2026-04-22 13:41 10.91455 -63.97009 87 ft 8 kts 207°
2026-04-22 13:41 10.91391 -63.97012 87 ft 9 kts 182°
2026-04-22 13:42 10.91351 -63.97062 87 ft 10 kts 259°
2026-04-22 13:42 10.91335 -63.97140 88 ft 11 kts 258°
2026-04-22 13:42 10.91318 -63.97225 87 ft 12 kts 258°
2026-04-22 13:42 10.91300 -63.97316 87 ft 13 kts 258°
2026-04-22 13:43 10.91281 -63.97412 88 ft 14 kts 258°
2026-04-22 13:43 10.91259 -63.97513 88 ft 14 kts 258°
2026-04-22 13:43 10.91239 -63.97616 88 ft 15 kts 258°
2026-04-22 13:43 10.91218 -63.97725 87 ft 15 kts 259°
2026-04-22 13:44 10.91196 -63.97836 88 ft 16 kts 257°
2026-04-22 13:44 10.91171 -63.97948 88 ft 16 kts 257°
2026-04-22 13:44 10.91146 -63.98066 88 ft 16 kts 258°
2026-04-22 13:44 10.91083 -63.98151 88 ft 16 kts 176°
2026-04-22 13:45 10.90998 -63.98085 88 ft 13 kts 150°
2026-04-22 13:45 10.90977 -63.98031 88 ft 8 kts 73°
2026-04-22 13:45 10.90980 -63.98019 88 ft 0 kts 76°
2026-04-22 13:46 10.91009 -63.97889 88 ft 56 kts 77°
2026-04-22 13:46 10.91142 -63.97240 88 ft 129 kts 78°
2026-04-22 13:46 10.91366 -63.96149 204 ft 176 kts 77°
2026-04-22 13:47 10.91622 -63.94884 817 ft 186 kts 77°
2026-04-22 13:47 10.91888 -63.93615 1747 ft 189 kts 77°
2026-04-22 13:47 10.92165 -63.92291 2398 ft 200 kts 77°
2026-04-22 13:47 10.92306 -63.90838 2888 ft 219 kts 98°
2026-04-22 13:48 10.91648 -63.89373 3391 ft 241 kts 130°
2026-04-22 13:48 10.90214 -63.88415 3874 ft 264 kts 163°
2026-04-22 13:48 10.88335 -63.88446 4533 ft 278 kts 199°
2026-04-22 13:48 10.86773 -63.89537 5345 ft 281 kts 231°
2026-04-22 13:49 10.85623 -63.91139 6217 ft 282 kts 236°
2026-04-22 13:49 10.84515 -63.92768 7030 ft 285 kts 236°
2026-04-22 13:49 10.83393 -63.94423 7858 ft 287 kts 236°
2026-04-22 13:49 10.82257 -63.96094 8662 ft 289 kts 236°
2026-04-22 13:50 10.81109 -63.97772 9435 ft 290 kts 236°
2026-04-22 13:50 10.79956 -63.99450 10165 ft 292 kts 236°
2026-04-22 13:50 10.78765 -64.01183 10675 ft 304 kts 236°
2026-04-22 13:50 10.77546 -64.02984 10991 ft 321 kts 239°
2026-04-22 13:51 10.76674 -64.05117 11271 ft 337 kts 260°
2026-04-22 13:51 10.76455 -64.07533 11685 ft 348 kts 268°
2026-04-22 13:51 10.76397 -64.10000 12273 ft 353 kts 269°
2026-04-22 13:51 10.76335 -64.12525 12939 ft 356 kts 268°
2026-04-22 13:52 10.76246 -64.15018 13585 ft 359 kts 268°
2026-04-22 13:52 10.76133 -64.17551 14155 ft 363 kts 268°
2026-04-22 13:52 10.76003 -64.20145 14721 ft 366 kts 267°
2026-04-22 13:52 10.75864 -64.22731 15249 ft 370 kts 267°
2026-04-22 13:53 10.75718 -64.25343 15805 ft 374 kts 267°
2026-04-22 13:53 10.75566 -64.28001 16324 ft 377 kts 267°
2026-04-22 13:53 10.75414 -64.30655 16815 ft 381 kts 267°
2026-04-22 13:53 10.75258 -64.33343 17313 ft 384 kts 267°
2026-04-22 13:54 10.75102 -64.36050 17830 ft 386 kts 267°
2026-04-22 13:54 10.74943 -64.38770 18301 ft 390 kts 267°
2026-04-22 13:54 10.74782 -64.41545 18779 ft 393 kts 267°
2026-04-22 13:54 10.74621 -64.44308 19233 ft 396 kts 267°
2026-04-22 13:55 10.74456 -64.47129 19708 ft 399 kts 267°
2026-04-22 13:55 10.74293 -64.49941 20158 ft 402 kts 267°
2026-04-22 13:55 10.74127 -64.52773 20599 ft 405 kts 267°
2026-04-22 13:55 10.73957 -64.55668 21018 ft 409 kts 267°
2026-04-22 13:56 10.73788 -64.58540 21429 ft 412 kts 267°
2026-04-22 13:56 10.73691 -64.61444 21848 ft 415 kts 270°
2026-04-22 13:56 10.73761 -64.64378 22272 ft 418 kts 273°
2026-04-22 13:56 10.73898 -64.67351 22686 ft 421 kts 273°
2026-04-22 13:57 10.74044 -64.70348 23117 ft 423 kts 273°
2026-04-22 13:57 10.74189 -64.73328 23571 ft 424 kts 272°
2026-04-22 13:57 10.74334 -64.76316 23904 ft 426 kts 272°
2026-04-22 13:57 10.74476 -64.79307 23965 ft 426 kts 272°
2026-04-22 13:58 10.74620 -64.82336 23970 ft 425 kts 272°
2026-04-22 13:58 10.74757 -64.85293 23970 ft 424 kts 272°
2026-04-22 13:58 10.74898 -64.88317 23973 ft 424 kts 272°
2026-04-22 13:58 10.75036 -64.91299 23973 ft 423 kts 272°
2026-04-22 13:59 10.75175 -64.94287 23970 ft 423 kts 273°
2026-04-22 13:59 10.75314 -64.97272 23972 ft 423 kts 273°
2026-04-22 13:59 10.75452 -65.00243 23976 ft 423 kts 273°
2026-04-22 13:59 10.75590 -65.03218 23976 ft 423 kts 273°
2026-04-22 14:00 10.75727 -65.06185 23976 ft 423 kts 273°
2026-04-22 14:00 10.75865 -65.09167 23975 ft 423 kts 272°
2026-04-22 14:00 10.76002 -65.12151 23976 ft 424 kts 272°
2026-04-22 14:00 10.76140 -65.15144 23975 ft 424 kts 272°
2026-04-22 14:01 10.76277 -65.18138 23977 ft 425 kts 272°
2026-04-22 14:01 10.76414 -65.21169 23975 ft 424 kts 272°
2026-04-22 14:01 10.76550 -65.24158 23974 ft 424 kts 272°
2026-04-22 14:01 10.76685 -65.27142 23970 ft 424 kts 273°
2026-04-22 14:02 10.76820 -65.30131 23970 ft 424 kts 273°
2026-04-22 14:02 10.76955 -65.33111 23970 ft 423 kts 273°
2026-04-22 14:02 10.77090 -65.36088 23968 ft 424 kts 273°
2026-04-22 14:02 10.77226 -65.39073 23971 ft 425 kts 272°
2026-04-22 14:03 10.77361 -65.42065 23975 ft 425 kts 272°
2026-04-22 14:03 10.77496 -65.45094 23974 ft 425 kts 273°
2026-04-22 14:03 10.77630 -65.48077 23977 ft 425 kts 272°
2026-04-22 14:03 10.77763 -65.51067 23978 ft 425 kts 273°
2026-04-22 14:04 10.77896 -65.54054 23979 ft 425 kts 273°
2026-04-22 14:04 10.78031 -65.57078 23982 ft 425 kts 272°
2026-04-22 14:04 10.78164 -65.60063 23983 ft 425 kts 272°
2026-04-22 14:04 10.78297 -65.63051 23984 ft 425 kts 272°
2026-04-22 14:05 10.78430 -65.66046 23984 ft 426 kts 272°
2026-04-22 14:05 10.78563 -65.69081 23981 ft 426 kts 272°
2026-04-22 14:05 10.78826 -65.75079 23981 ft 425 kts 272°
2026-04-22 14:06 10.78957 -65.78070 23978 ft 425 kts 272°
2026-04-22 14:06 10.79087 -65.81058 23975 ft 425 kts 272°
2026-04-22 14:06 10.79217 -65.84051 23974 ft 425 kts 272°
2026-04-22 14:06 10.79347 -65.87045 23975 ft 425 kts 272°
2026-04-22 14:07 10.79479 -65.90077 23975 ft 425 kts 272°
2026-04-22 14:07 10.79609 -65.93057 23974 ft 425 kts 272°
2026-04-22 14:07 10.79739 -65.96049 23973 ft 425 kts 272°
2026-04-22 14:07 10.79869 -65.99039 23976 ft 425 kts 272°
2026-04-22 14:08 10.79999 -66.02042 23975 ft 425 kts 272°
2026-04-22 14:08 10.80128 -66.05037 23977 ft 425 kts 272°
2026-04-22 14:08 10.80257 -66.08066 23978 ft 426 kts 272°
2026-04-22 14:08 10.80385 -66.11034 23977 ft 425 kts 272°
2026-04-22 14:09 10.80513 -66.14044 23977 ft 425 kts 272°
2026-04-22 14:09 10.80641 -66.17050 23910 ft 426 kts 272°
2026-04-22 14:09 10.80767 -66.20019 23409 ft 425 kts 272°
2026-04-22 14:09 10.80895 -66.23005 22883 ft 422 kts 272°
2026-04-22 14:10 10.81021 -66.25996 22326 ft 421 kts 272°
2026-04-22 14:10 10.81146 -66.28957 21785 ft 419 kts 272°
2026-04-22 14:10 10.81269 -66.31905 21262 ft 417 kts 272°
2026-04-22 14:10 10.81394 -66.34848 20753 ft 415 kts 272°
2026-04-22 14:11 10.81429 -66.37738 20243 ft 412 kts 269°
2026-04-22 14:11 10.81233 -66.40634 19728 ft 410 kts 264°
2026-04-22 14:11 10.80817 -66.43493 19228 ft 407 kts 261°
2026-04-22 14:11 10.80333 -66.46301 18732 ft 403 kts 260°
2026-04-22 14:12 10.79843 -66.49085 18243 ft 400 kts 260°
2026-04-22 14:12 10.79358 -66.51851 17742 ft 397 kts 260°
2026-04-22 14:12 10.78877 -66.54609 17248 ft 394 kts 260°
2026-04-22 14:12 10.78405 -66.57329 16750 ft 392 kts 261°
2026-04-22 14:13 10.77932 -66.60057 16241 ft 389 kts 260°
2026-04-22 14:13 10.77467 -66.62745 15755 ft 386 kts 261°
2026-04-22 14:13 10.77006 -66.65408 15292 ft 383 kts 260°
2026-04-22 14:13 10.76548 -66.68060 14813 ft 380 kts 260°
2026-04-22 14:14 10.76093 -66.70688 14332 ft 377 kts 261°
2026-04-22 14:14 10.75643 -66.73287 13857 ft 374 kts 260°
2026-04-22 14:14 10.75196 -66.75872 13357 ft 371 kts 261°
2026-04-22 14:14 10.74748 -66.78460 12897 ft 367 kts 261°
2026-04-22 14:15 10.74308 -66.80997 12428 ft 364 kts 261°
2026-04-22 14:15 10.73874 -66.83501 11958 ft 361 kts 261°
2026-04-22 14:15 10.73435 -66.86025 11477 ft 358 kts 261°
2026-04-22 14:15 10.73025 -66.88512 11003 ft 356 kts 263°
2026-04-22 14:16 10.72780 -66.90991 10570 ft 351 kts 267°
2026-04-22 14:16 10.72719 -66.93433 10343 ft 339 kts 270°
2026-04-22 14:16 10.72714 -66.95782 10222 ft 326 kts 270°
2026-04-22 14:16 10.72715 -66.98034 10088 ft 313 kts 270°
2026-04-22 14:17 10.72716 -67.00202 9990 ft 300 kts 270°
2026-04-22 14:17 10.72715 -67.02247 9971 ft 288 kts 270°
2026-04-22 14:17 10.72712 -67.04279 9802 ft 285 kts 270°
2026-04-22 14:17 10.72709 -67.06308 9432 ft 285 kts 271°
2026-04-22 14:18 10.72706 -67.08311 9044 ft 285 kts 271°
2026-04-22 14:18 10.72704 -67.10335 8659 ft 285 kts 270°
2026-04-22 14:18 10.72700 -67.12328 8275 ft 284 kts 271°
2026-04-22 14:18 10.72696 -67.14341 7906 ft 283 kts 271°
2026-04-22 14:19 10.72693 -67.16325 7540 ft 283 kts 270°
2026-04-22 14:19 10.72689 -67.18319 7110 ft 285 kts 270°
2026-04-22 14:19 10.72684 -67.20355 6485 ft 294 kts 270°
2026-04-22 14:19 10.72689 -67.22422 6177 ft 288 kts 271°
2026-04-22 14:20 10.72712 -67.26446 5500 ft 283 kts 271°
2026-04-22 14:20 10.72724 -67.28419 5155 ft 281 kts 271°
2026-04-22 14:20 10.72736 -67.30397 4812 ft 280 kts 271°
2026-04-22 14:21 10.71404 -67.33935 4090 ft 276 kts 214°
2026-04-22 14:21 10.69659 -67.34625 3973 ft 272 kts 184°
2026-04-22 14:22 10.66300 -67.33239 3982 ft 266 kts 127°
2026-04-22 14:22 10.65181 -67.31757 3986 ft 266 kts 130°
2026-04-22 14:22 10.62640 -67.29014 3982 ft 267 kts 132°
2026-04-22 14:23 10.61329 -67.27676 3992 ft 267 kts 133°
2026-04-22 14:23 10.60122 -67.26283 3976 ft 254 kts 116°
2026-04-22 14:23 10.59632 -67.24634 3983 ft 234 kts 94°
2026-04-22 14:23 10.59605 -67.23042 3990 ft 218 kts 86°
2026-04-22 14:24 10.59690 -67.21551 3929 ft 207 kts 85°
2026-04-22 14:24 10.59773 -67.20110 3708 ft 204 kts 85°
2026-04-22 14:24 10.59838 -67.18684 3528 ft 196 kts 86°
2026-04-22 14:24 10.59886 -67.17318 3279 ft 191 kts 86°
2026-04-22 14:25 10.59926 -67.15985 3016 ft 187 kts 86°
2026-04-22 14:25 10.59963 -67.14677 2758 ft 182 kts 86°
2026-04-22 14:25 10.60000 -67.13417 2542 ft 175 kts 86°
2026-04-22 14:25 10.60034 -67.12231 2304 ft 161 kts 86°
2026-04-22 14:26 10.60066 -67.11143 2083 ft 145 kts 86°
2026-04-22 14:26 10.60094 -67.10168 1904 ft 138 kts 86°
2026-04-22 14:26 10.60124 -67.09194 1751 ft 139 kts 86°
2026-04-22 14:26 10.60159 -67.08196 1594 ft 141 kts 86°
2026-04-22 14:27 10.60192 -67.07198 1424 ft 142 kts 86°
2026-04-22 14:27 10.60223 -67.06190 1246 ft 144 kts 87°
2026-04-22 14:27 10.60254 -67.05171 1060 ft 146 kts 87°
2026-04-22 14:27 10.60287 -67.04127 869 ft 147 kts 87°
2026-04-22 14:28 10.60320 -67.03085 654 ft 150 kts 88°
2026-04-22 14:28 10.60354 -67.02016 433 ft 151 kts 88°
2026-04-22 14:28 10.60387 -67.00962 306 ft 146 kts 88°
2026-04-22 14:28 10.60416 -67.00053 299 ft 96 kts 88°
2026-04-22 14:29 10.60423 -66.99708 286 ft 19 kts 105°
2026-04-22 14:29 10.60304 -66.99670 288 ft 18 kts 179°
2026-04-22 14:29 10.60181 -66.99674 291 ft 16 kts 198°
2026-04-22 14:29 10.60136 -66.99761 296 ft 13 kts 267°
2026-04-22 14:30 10.60133 -66.99847 299 ft 12 kts 268°
2026-04-22 14:30 10.60122 -66.99927 301 ft 8 kts 265°
2026-04-22 14:30 10.60105 -66.99979 303 ft 4 kts 206°
2026-04-22 14:30 10.60089 -66.99981 303 ft 0 kts 188°
2026-04-22 14:31 10.60082 -66.99983 303 ft 1 kts 188°
2026-04-22 14:31 10.60076 -66.99982 303 ft 0 kts 178°
2026-04-22 14:31 10.60069 -66.99982 304 ft 2 kts 178°
2026-04-22 14:31 10.60068 -66.99982 304 ft 1 kts 178°